Regional Weather Roundup
Issued by NWS Midland/Odessa, TX

Skip options and go directly to product.
Home | Oldest Version | Previous Version | Current Version | All | Graphics & Text | Save Text | Print | Product List | Glossary On

Skip product version selection by date and time.   
384
ASUS44 KMAF 240801
RWRMAF
MIDLAND AREA WEATHER ROUNDUP
NATIONAL WEATHER SERVICE MIDLAND TX
300 AM CDT TUE MAY 24 2016

...IN SOUTHWEST TEXAS AND SOUTHEAST NEW MEXICO...

CITY           SKY/WX    TMP DP  RH WIND       PRES   REMARKS
ALPINE         PTCLDY    67  56  66 SW5       30.00F
ANDREWS        FAIR      71  64  80 S10       29.88R
ARTESIA        CLEAR     63  32  31 S9        29.87R
BIG SPRING     CLOUDY    70  67  89 SE10G17   29.89R
CARLSBAD       CLEAR     69  54  58 S9        29.85R
DRYDEN         NOT AVBL
FORT STOCKTON  CLEAR     73  65  75 S17       29.84R
GUAD PASS      NOT AVBL
HOBBS          CLEAR     66  59  77 S12       29.89S
MARFA          CLEAR     57  53  86 N3        30.01R
MIDLAND AIRPK  CLOUDY    75  67  76 S7        29.87S
MIDLAND INTL   CLOUDY    76  68  76 S17       29.87R
ODESSA         PTCLDY    75  67  76 S14       29.87R
PECOS          CLEAR     73  61  66 E9        29.82R
PRESIDIO       FAIR      76  60  57 N6        29.85S
SEMINOLE       PTCLDY    69  61  77 SE6       29.90R
SNYDER           N/A     72  70  92 S14       29.86S
WINK           CLEAR     73  66  78 MISG      29.83R
$$
...OTHER STATIONS IN TEXAS...

CITY           SKY/WX    TMP DP  RH WIND       PRES   REMARKS
ABILENE        CLEAR     74  70  87 S16G28    29.84F
AMARILLO       CLEAR     64  61  90 S16       29.86F
AUSTIN         CLOUDY    75  73  93 S9        29.89S
BROWNSVILLE    CLOUDY    80  77  90 E8        29.84F
CORPUS CHRISTI CLOUDY    79  76  90 SE7       29.86F
DALLAS FTW     MOCLDY    77  70  79 S15       29.86F
DEL RIO        CLOUDY    78  74  87 SE12      29.81R
EL PASO        PTCLDY    78  17  10 W21G35    29.90S
HOUSTON INT    MOCLDY    73  72  96 E5        29.94S
LUBBOCK        PTCLDY    70  66  87 S10       29.87R
SAN ANGELO     CLOUDY    78  70  76 S9G20     29.85R
SAN ANTONIO    CLOUDY    75  72  90 SE9       29.90F
WACO           CLOUDY    75  70  84 SE15      29.89F
WICHITA FALLS  NOT AVBL
$$
...OTHER LOCATIONS IN NEW MEXICO...

CITY           SKY/WX    TMP DP  RH WIND       PRES   REMARKS
ALAMAGORDO     CLEAR     66  18  15 SE14      29.91S
ALBUQUERQUE    CLEAR     59  16  18 SE7       29.94F
CANNON AFB     CLEAR     59  38  45 SE13      29.87R
CLOVIS         CLEAR     59  48  67 S12       29.88R
HOLLOMAN AFB   CLEAR     66  18  15 S8        29.89R
ROSWELL        CLEAR     62  28  27 S6        29.85R
RUIDOSO          N/A     54  16  22 SW10      30.06F
SANTA FE       CLEAR     56  20  24 CALM      29.98R
TRUTH OR CONSE CLEAR     63  22  20 W9        29.92S
TUCUMCARI      CLEAR     65  27  23 SW14      29.81S
$$

USA.gov is the U.S. government's official web portal to all federal, state and local government web resources and services.